GW2821 Weather Reports


time (UTC)temp
F
wind
direction
speed
knots
gust
knots
rain 1hr
in
rain 24hr
in
rain mn
in
humidity
%
barometer
mb
20260508011119 60 206 2.6 4.3 0.00 0.02 0.02 57
20260508010114 61 271 6.1 7.8 0.00 0.02 0.02 57
20260508004719 61 326 1.7 4.3 0.00 0.02 0.02 53
20260508003448 61 63 5.2 7.8 0.00 0.02 0.02 49
20260508001625 62 78 2.6 2.6 0.00 0.02 0.02 48
20260508000407 60 55 6.1 7.0 0.00 0.02 0.02 53
20260507235328 61 17 5.2 7.8 0.00 0.02 0.02 50
20260507233344 58 33 14.8 20.0 0.00 0.02 0.02 56
20260507232648 58 4 24.3 29.5 0.00 0.02 0.02 58
20260507231256 59 14 11.3 13.9 0.00 0.02 0.02 59
20260507230151 64 320 6.1 8.7 0.00 0.02 0.02 49
20260507224511 64 28 10.4 12.2 0.00 0.02 0.02 47
20260507222631 63 22 7.0 7.8 0.00 0.02 0.02 48
20260507221017 62 23 7.0 8.7 0.00 0.02 0.02 50
20260507220232 62 13 7.8 9.6 0.00 0.02 0.02 49
20260507214751 62 263 3.5 5.2 0.00 0.02 0.02 50
20260507213832 62 17 4.3 5.2 0.00 0.02 0.02 52
20260507212407 61 153 3.5 4.3 0.00 0.02 0.02 51
20260507211419 62 307 3.5 5.2 0.00 0.02 0.02 50
20260507210319 62 59 4.3 6.1 0.00 0.02 0.02 51
20260507205312 62 327 7.0 8.7 0.00 0.02 0.02 49
20260507204041 63 34 4.3 6.1 0.00 0.02 0.02 52
20260507202007 60 29 4.3 6.1 0.00 0.02 0.02 55
20260507192248 54 343 6.1 9.6 0.00 0.02 0.02 79
20260507185344 58 73 8.7 13.9 0.00 0.02 0.02 60
20260507185049 59 92 8.7 9.6 0.00 0.02 0.02 60
20260507183138 60 331 7.0 9.6 0.00 0.02 0.02 57
20260507181744 63 19 13.0 16.5 0.00 0.02 0.02 53
20260507181344 61 46 4.3 6.1 0.00 0.02 0.02 57
20260507180528 61 55 4.3 8.7 0.00 0.02 0.02 57
20260507175438 61 58 5.2 8.7 0.00 0.02 0.02 57
20260507170250 59 354 6.1 9.6 0.00 0.02 0.02 59
20260507162056 57 11 6.1 7.8 0.00 0.02 0.02 67
20260507161124 56 114 0.9 0.9 0.00 0.02 0.02 72
20260507160424 55 0.0 0.0 0.00 0.02 0.02 78
20260507154216 53 75 0.9 0.9 0.00 0.02 0.02 80
20260507153152 53 0.0 0.0 0.00 0.02 0.02 82
20260507152131 52 145 0.9 0.9 0.00 0.02 0.02 83
20260507151121 51 131 0.9 0.9 0.00 0.02 0.02 82
20260507150128 52 140 1.7 2.6 0.00 0.02 0.02 82
20260507145610 53 126 0.0 0.9 0.00 0.02 0.02 81
20260507140824 49 207 1.7 1.7 0.00 0.02 0.02 88
20260507135852 51 219 2.6 2.6 0.00 0.02 0.02 84
20260507134826 52 99 1.7 1.7 0.00 0.02 0.02 78
20260507133837 51 94 2.6 2.6 0.00 0.02 0.02 80
20260507132752 51 74 3.5 4.3 0.00 0.02 0.02 79
20260507131804 51 61 5.2 6.1 0.00 0.02 0.02 79
20260507130752 51 41 7.0 8.7 0.00 0.02 0.02 78
20260507125800 50 76 5.2 6.1 0.00 0.02 0.02 81
20260507124812 49 70 2.6 2.6 0.00 0.02 0.02 84
20260507123801 49 101 1.7 1.7 0.00 0.02 0.02 85
20260507122755 49 119 3.5 4.3 0.00 0.02 0.02 83
20260507121800 48 106 3.5 4.3 0.00 0.02 0.02 85
20260507120753 49 103 0.0 0.9 0.00 0.02 0.02 84
20260507115800 49 117 3.5 4.3 0.00 0.02 0.02 82
20260507114813 50 133 2.6 2.6 0.00 0.02 0.02 77
20260507113800 49 91 6.1 7.8 0.01 0.02 0.02 81
20260507112813 48 70 7.8 8.7 0.02 0.02 0.02 86
20260507111803 49 79 2.6 2.6 0.02 0.02 0.02 83
20260507110813 49 71 2.6 2.6 0.02 0.02 0.02 84
20260507105800 49 36 7.8 7.8 0.02 0.02 0.02 83
20260507104752 49 25 12.2 13.0 0.02 0.02 0.02 84
20260507103820 49 7 9.6 13.0 0.01 0.01 0.01 87
20260507102840 50 320 11.3 15.6 0.00 0.00 0.00 83
20260507101716 52 313 9.6 13.0 0.00 0.00 0.00 77
20260507100528 56 0.0 0.0 0.00 0.00 0.00 59
20260507094704 55 111 4.3 5.2 0.00 0.00 0.00 59
20260507093701 56 0.0 0.0 0.00 0.00 0.00 59
20260507092725 56 0.0 0.0 0.00 0.00 0.00 57
20260507091627 56 136 0.9 2.6 0.00 0.00 0.00 56
20260507090721 56 108 0.9 1.7 0.00 0.00 0.00 59
20260507083417 55 95 3.5 4.3 0.00 0.00 0.00 63
20260507082354 55 115 0.9 1.7 0.00 0.00 0.00 64
20260507081418 55 86 3.5 4.3 0.00 0.00 0.00 63
20260507080415 55 82 2.6 2.6 0.00 0.00 0.00 64
20260507075349 55 94 4.3 5.2 0.00 0.00 0.00 62
20260507074321 55 105 3.5 4.3 0.00 0.00 0.00 63
20260507053230 59 9 25.2 29.5 0.00 0.00 0.00 53